Time,TemperatureF,DewpointF,PressureIn,WindDirection,WindDirectionDegrees,WindSpeedMPH,WindSpeedGustMPH,Humidity,HourlyPrecipIn,Conditions,Clouds,dailyrainin,SoftwareType,DateUTC
2013-03-22 00:08:00,45.1,38.0,30.07,North,349,0.0,2.0,77,0.00,,,0.00,weatherlink.com 1.10,2013-03-22 07:08:00,
2013-03-22 00:23:00,44.9,38.0,30.07,NNE,13,1.0,5.0,78,0.00,,,0.00,weatherlink.com 1.10,2013-03-22 07:23:00,
2013-03-22 00:38:00,44.5,38.0,30.07,North,11,0.0,0.0,79,0.00,,,0.00,weatherlink.com 1.10,2013-03-22 07:38:00,
2013-03-22 00:53:00,43.7,39.0,30.07,North,11,0.0,0.0,82,0.00,,,0.00,weatherlink.com 1.10,2013-03-22 07:53:00,
2013-03-22 01:08:00,43.1,38.0,30.07,North,11,0.0,0.0,83,0.00,,,0.00,weatherlink.com 1.10,2013-03-22 08:08:00,
2013-03-22 01:23:00,42.6,38.0,30.07,North,11,0.0,1.0,85,0.00,,,0.00,weatherlink.com 1.10,2013-03-22 08:23:00,
2013-03-22 01:38:00,42.1,38.0,30.08,NNE,15,0.0,1.0,86,0.00,,,0.00,weatherlink.com 1.10,2013-03-22 08:38:00,
2013-03-22 01:53:00,42.0,38.0,30.08,NNE,16,0.0,0.0,85,0.00,,,0.00,weatherlink.com 1.10,2013-03-22 08:53:00,
2013-03-22 02:08:00,42.1,38.0,30.08,East,88,0.0,7.0,86,0.00,,,0.00,weatherlink.com 1.10,2013-03-22 09:08:00,
2013-03-22 02:23:00,43.2,37.0,30.08,WNW,293,1.0,3.0,79,0.00,,,0.00,weatherlink.com 1.10,2013-03-22 09:23:00,
2013-03-22 02:38:00,43.6,38.0,30.08,East,88,0.0,7.0,81,0.00,,,0.00,weatherlink.com 1.10,2013-03-22 09:38:00,
2013-03-22 02:53:00,41.8,37.0,30.07,WSW,252,0.0,2.0,84,0.00,,,0.00,weatherlink.com 1.10,2013-03-22 09:53:00,
2013-03-22 03:08:00,41.9,37.0,30.07,WNW,296,0.0,3.0,83,0.00,,,0.00,weatherlink.com 1.10,2013-03-22 10:08:00,
2013-03-22 03:23:00,41.9,37.0,30.07,WNW,290,0.0,1.0,82,0.00,,,0.00,weatherlink.com 1.10,2013-03-22 10:23:00,
2013-03-22 03:38:00,41.6,35.0,30.08,WNW,283,2.0,4.0,78,0.00,,,0.00,weatherlink.com 1.10,2013-03-22 10:38:00,
2013-03-22 03:53:00,42.0,36.0,30.07,NE,51,0.0,5.0,78,0.00,,,0.00,weatherlink.com 1.10,2013-03-22 10:53:00,
2013-03-22 04:08:00,41.5,35.0,30.07,NNW,335,1.0,6.0,77,0.00,,,0.00,weatherlink.com 1.10,2013-03-22 11:08:00,
2013-03-22 04:23:00,41.9,35.0,30.07,NW,325,0.0,2.0,76,0.00,,,0.00,weatherlink.com 1.10,2013-03-22 11:23:00,
2013-03-22 04:38:00,41.6,34.0,30.07,NW,325,0.0,1.0,75,0.00,,,0.00,weatherlink.com 1.10,2013-03-22 11:38:00,
2013-03-22 04:53:00,41.1,34.0,30.07,NW,325,0.0,1.0,76,0.00,,,0.00,weatherlink.com 1.10,2013-03-22 11:53:00,
2013-03-22 05:08:00,40.6,34.0,30.07,NE,53,0.0,2.0,77,0.00,,,0.00,weatherlink.com 1.10,2013-03-22 12:08:00,
2013-03-22 05:23:00,40.4,34.0,30.07,East,81,0.0,1.0,77,0.00,,,0.00,weatherlink.com 1.10,2013-03-22 12:23:00,
2013-03-22 05:38:00,39.8,35.0,30.08,East,81,0.0,1.0,83,0.00,,,0.00,weatherlink.com 1.10,2013-03-22 12:38:00,
2013-03-22 05:53:00,39.0,34.0,30.08,ENE,65,0.0,1.0,82,0.00,,,0.00,weatherlink.com 1.10,2013-03-22 12:53:00,
2013-03-22 06:08:00,39.0,34.0,30.08,ENE,65,0.0,0.0,82,0.00,,,0.00,weatherlink.com 1.10,2013-03-22 13:08:00,
2013-03-22 06:23:00,39.1,33.0,30.08,ENE,67,0.0,0.0,80,0.00,,,0.00,weatherlink.com 1.10,2013-03-22 13:23:00,
2013-03-22 06:38:00,38.9,34.0,30.09,NW,325,0.0,1.0,81,0.00,,,0.00,weatherlink.com 1.10,2013-03-22 13:38:00,
2013-03-22 06:53:00,38.5,33.0,30.09,NW,325,0.0,1.0,81,0.00,,,0.00,weatherlink.com 1.10,2013-03-22 13:53:00,
2013-03-22 07:08:00,38.3,33.0,30.09,ENE,63,0.0,2.0,81,0.00,,,0.00,weatherlink.com 1.10,2013-03-22 14:08:00,
2013-03-22 07:23:00,37.9,33.0,30.09,ENE,63,0.0,1.0,81,0.00,,,0.00,weatherlink.com 1.10,2013-03-22 14:23:00,
2013-03-22 07:38:00,38.2,33.0,30.10,East,101,0.0,0.0,80,0.00,,,0.00,weatherlink.com 1.10,2013-03-22 14:38:00,
2013-03-22 07:53:00,38.9,33.0,30.10,East,101,0.0,0.0,80,0.00,,,0.00,weatherlink.com 1.10,2013-03-22 14:53:00,
2013-03-22 08:08:00,39.6,33.0,30.10,East,101,0.0,0.0,78,0.00,,,0.00,weatherlink.com 1.10,2013-03-22 15:08:00,
2013-03-22 08:23:00,41.1,34.0,30.11,NNE,18,1.0,2.0,77,0.00,,,0.00,weatherlink.com 1.10,2013-03-22 15:23:00,
2013-03-22 08:38:00,42.9,36.0,30.11,ENE,76,0.0,3.0,76,0.00,,,0.00,weatherlink.com 1.10,2013-03-22 15:38:00,
2013-03-22 08:53:00,44.5,36.0,30.11,ENE,76,0.0,1.0,73,0.00,,,0.00,weatherlink.com 1.10,2013-03-22 15:53:00,
2013-03-22 09:09:00,46.3,37.0,30.12,ENE,69,0.0,1.0,71,0.00,,,0.00,weatherlink.com 1.10,2013-03-22 16:09:00,
2013-03-22 09:24:00,48.2,37.0,30.12,ENE,69,0.0,2.0,66,0.00,,,0.00,weatherlink.com 1.10,2013-03-22 16:24:00,
2013-03-22 09:39:00,49.8,38.0,30.12,ENE,69,0.0,1.0,64,0.00,,,0.00,weatherlink.com 1.10,2013-03-22 16:39:00,
2013-03-22 09:54:00,52.5,37.0,30.13,ENE,73,0.0,3.0,57,0.00,,,0.00,weatherlink.com 1.10,2013-03-22 16:54:00,
2013-03-22 10:09:00,55.2,39.0,30.13,NE,45,0.0,3.0,54,0.00,,,0.00,weatherlink.com 1.10,2013-03-22 17:09:00,
2013-03-22 10:24:00,56.3,37.0,30.14,WNW,289,1.0,3.0,48,0.00,,,0.00,weatherlink.com 1.10,2013-03-22 17:24:00,
2013-03-22 10:39:00,55.7,33.0,30.14,NNW,340,1.0,5.0,43,0.00,,,0.00,weatherlink.com 1.10,2013-03-22 17:39:00,
2013-03-22 10:54:00,56.3,35.0,30.13,NE,36,1.0,3.0,45,0.00,,,0.00,weatherlink.com 1.10,2013-03-22 17:54:00,
2013-03-22 11:09:00,57.8,30.0,30.13,WNW,284,2.0,5.0,35,0.00,,,0.00,weatherlink.com 1.10,2013-03-22 18:09:00,
2013-03-22 11:24:00,59.1,33.0,30.14,ESE,103,1.0,5.0,38,0.00,,,0.00,weatherlink.com 1.10,2013-03-22 18:24:00,
2013-03-22 11:39:00,58.5,37.0,30.14,SE,127,0.0,3.0,45,0.00,,,0.00,weatherlink.com 1.10,2013-03-22 18:39:00,
2013-03-22 11:54:00,61.2,35.0,30.13,ESE,118,0.0,3.0,37,0.00,,,0.00,weatherlink.com 1.10,2013-03-22 18:54:00,
2013-03-22 12:09:00,60.0,36.0,30.13,WNW,285,2.0,5.0,41,0.00,,,0.00,weatherlink.com 1.10,2013-03-22 19:09:00,
2013-03-22 12:24:00,61.5,33.0,30.13,NW,309,0.0,4.0,34,0.00,,,0.00,weatherlink.com 1.10,2013-03-22 19:24:00,
2013-03-22 12:39:00,62.2,33.0,30.13,WSW,248,3.0,4.0,33,0.00,,,0.00,weatherlink.com 1.10,2013-03-22 19:39:00,
2013-03-22 12:54:00,61.1,29.0,30.12,WNW,290,2.0,4.0,30,0.00,,,0.00,weatherlink.com 1.10,2013-03-22 19:54:00,
2013-03-22 13:09:00,61.3,36.0,30.12,East,80,2.0,6.0,39,0.00,,,0.00,weatherlink.com 1.10,2013-03-22 20:09:00,
2013-03-22 13:24:00,62.7,30.0,30.11,SSW,194,1.0,4.0,29,0.00,,,0.00,weatherlink.com 1.10,2013-03-22 20:24:00,
2013-03-22 13:39:00,62.6,28.0,30.11,NW,305,2.0,5.0,27,0.00,,,0.00,weatherlink.com 1.10,2013-03-22 20:39:00,
2013-03-22 13:54:00,63.1,37.0,30.11,NNW,330,1.0,7.0,38,0.00,,,0.00,weatherlink.com 1.10,2013-03-22 20:54:00,
2013-03-22 14:09:00,64.2,34.0,30.10,WNW,282,3.0,3.0,32,0.00,,,0.00,weatherlink.com 1.10,2013-03-22 21:09:00,
2013-03-22 14:24:00,64.5,37.0,30.09,SE,146,1.0,5.0,36,0.00,,,0.00,weatherlink.com 1.10,2013-03-22 21:24:00,
2013-03-22 14:39:00,64.5,31.0,30.09,WSW,248,2.0,5.0,29,0.00,,,0.00,weatherlink.com 1.10,2013-03-22 21:39:00,
2013-03-22 14:54:00,66.2,34.0,30.08,NNW,332,1.0,3.0,30,0.00,,,0.00,weatherlink.com 1.10,2013-03-22 21:54:00,
2013-03-22 15:09:00,67.0,35.0,30.08,East,85,0.0,3.0,31,0.00,,,0.00,weatherlink.com 1.10,2013-03-22 22:09:00,
2013-03-22 15:24:00,66.9,34.0,30.08,WNW,282,1.0,3.0,29,0.00,,,0.00,weatherlink.com 1.10,2013-03-22 22:24:00,
2013-03-22 15:39:00,67.4,35.0,30.08,West,262,0.0,3.0,30,0.00,,,0.00,weatherlink.com 1.10,2013-03-22 22:39:00,
2013-03-22 15:54:00,65.8,37.0,30.08,South,182,2.0,8.0,35,0.00,,,0.00,weatherlink.com 1.10,2013-03-22 22:54:00,
2013-03-22 16:09:00,66.1,40.0,30.07,SE,127,2.0,3.0,39,0.00,,,0.00,weatherlink.com 1.10,2013-03-22 23:09:00,
2013-03-22 16:24:00,66.2,37.0,30.07,NW,321,0.0,4.0,34,0.00,,,0.00,weatherlink.com 1.10,2013-03-22 23:24:00,
2013-03-22 16:40:00,67.6,38.0,30.06,WSW,258,0.0,3.0,34,0.00,,,0.00,weatherlink.com 1.10,2013-03-22 23:40:00,
2013-03-22 16:55:00,68.1,40.0,30.07,East,93,3.0,4.0,36,0.00,,,0.00,weatherlink.com 1.10,2013-03-22 23:55:00,
2013-03-22 17:10:00,67.9,41.0,30.06,ENE,78,0.0,3.0,37,0.00,,,0.00,weatherlink.com 1.10,2013-03-23 00:10:00,
2013-03-22 17:25:00,67.4,41.0,30.06,NNE,16,0.0,2.0,39,0.00,,,0.00,weatherlink.com 1.10,2013-03-23 00:25:00,
2013-03-22 17:40:00,66.9,41.0,30.05,NE,38,0.0,1.0,39,0.00,,,0.00,weatherlink.com 1.10,2013-03-23 00:40:00,
2013-03-22 17:55:00,65.5,40.0,30.05,East,88,2.0,4.0,39,0.00,,,0.00,weatherlink.com 1.10,2013-03-23 00:55:00,
2013-03-22 18:10:00,64.0,38.0,30.05,NE,54,1.0,4.0,38,0.00,,,0.00,weatherlink.com 1.10,2013-03-23 01:10:00,
2013-03-22 18:25:00,62.3,39.0,30.06,North,351,0.0,3.0,42,0.00,,,0.00,weatherlink.com 1.10,2013-03-23 01:25:00,
2013-03-22 18:40:00,61.2,38.0,30.05,NNW,340,0.0,2.0,43,0.00,,,0.00,weatherlink.com 1.10,2013-03-23 01:40:00,
2013-03-22 18:55:00,59.3,38.0,30.06,NNW,340,0.0,0.0,45,0.00,,,0.00,weatherlink.com 1.10,2013-03-23 01:55:00,
2013-03-22 19:10:00,57.0,37.0,30.06,ENE,74,0.0,4.0,48,0.00,,,0.00,weatherlink.com 1.10,2013-03-23 02:10:00,
2013-03-22 19:25:00,55.3,38.0,30.06,East,101,0.0,3.0,53,0.00,,,0.00,weatherlink.com 1.10,2013-03-23 02:25:00,
2013-03-22 19:40:00,53.3,39.0,30.06,ESE,119,0.0,3.0,59,0.00,,,0.00,weatherlink.com 1.10,2013-03-23 02:40:00,
2013-03-22 19:55:00,51.8,38.0,30.07,NNE,28,0.0,3.0,60,0.00,,,0.00,weatherlink.com 1.10,2013-03-23 02:55:00,
2013-03-22 20:10:00,50.9,38.0,30.07,WNW,302,1.0,4.0,61,0.00,,,0.00,weatherlink.com 1.10,2013-03-23 03:10:00,
2013-03-22 20:25:00,49.9,36.0,30.08,NE,53,0.0,2.0,60,0.00,,,0.00,weatherlink.com 1.10,2013-03-23 03:25:00,
2013-03-22 20:40:00,49.0,38.0,30.08,NE,53,0.0,0.0,65,0.00,,,0.00,weatherlink.com 1.10,2013-03-23 03:40:00,
2013-03-22 20:55:00,48.1,37.0,30.08,NE,42,0.0,1.0,65,0.00,,,0.00,weatherlink.com 1.10,2013-03-23 03:55:00,
2013-03-22 21:10:00,47.3,37.0,30.08,NE,49,0.0,2.0,68,0.00,,,0.00,weatherlink.com 1.10,2013-03-23 04:10:00,
2013-03-22 21:25:00,46.9,37.0,30.08,NE,49,0.0,0.0,69,0.00,,,0.00,weatherlink.com 1.10,2013-03-23 04:25:00,
2013-03-22 21:40:00,46.7,36.0,30.08,NE,49,0.0,0.0,67,0.00,,,0.00,weatherlink.com 1.10,2013-03-23 04:40:00,
2013-03-22 21:55:00,46.5,36.0,30.08,NNE,24,0.0,0.0,67,0.00,,,0.00,weatherlink.com 1.10,2013-03-23 04:55:00,
2013-03-22 22:10:00,46.4,36.0,30.09,ENE,68,0.0,3.0,68,0.00,,,0.00,weatherlink.com 1.10,2013-03-23 05:10:00,
2013-03-22 22:25:00,46.5,37.0,30.09,SSE,155,0.0,3.0,69,0.00,,,0.00,weatherlink.com 1.10,2013-03-23 05:25:00,
2013-03-22 22:40:00,46.0,37.0,30.09,SSE,155,0.0,1.0,71,0.00,,,0.00,weatherlink.com 1.10,2013-03-23 05:40:00,
2013-03-22 22:55:00,45.2,37.0,30.09,SSE,155,0.0,1.0,72,0.00,,,0.00,weatherlink.com 1.10,2013-03-23 05:55:00,
2013-03-22 23:10:00,45.3,37.0,30.09,SE,143,0.0,1.0,72,0.00,,,0.00,weatherlink.com 1.10,2013-03-23 06:10:00,
2013-03-22 23:25:00,44.8,37.0,30.09,ESE,119,0.0,2.0,73,0.00,,,0.00,weatherlink.com 1.10,2013-03-23 06:25:00,
2013-03-22 23:40:00,44.4,37.0,30.09,ESE,119,0.0,1.0,75,0.00,,,0.00,weatherlink.com 1.10,2013-03-23 06:40:00,
2013-03-22 23:55:00,44.0,37.0,30.09,ESE,119,0.0,1.0,76,0.00,,,0.00,weatherlink.com 1.10,2013-03-23 06:55:00,